This is the latest recevied weather packets stored in our database for station/object K4VEB. If no packets are shown the sender has not sent any weather packets the latest 10 day(s).
| Time | Temp. | Humidity | Pressure | Rain* | Wind** | Luminosity | Snow |
|---|---|---|---|---|---|---|---|
| 1777638636 | 23.89° C | 88% | 1012.1 hPa | 0 mm | - | 138 W/m² | - |
| 1777638333 | 23.89° C | 89% | 1012.2 hPa | 0 mm | - | 141 W/m² | - |
| 1777638029 | 23.33° C | 90% | 1012.4 hPa | 0 mm | - | 176 W/m² | - |
| 1777637726 | 22.78° C | 91% | 1012.3 hPa | 0 mm | - | 173 W/m² | - |
| 1777637422 | 22.78° C | 91% | 1012.3 hPa | 0 mm | - | 107 W/m² | - |
| 1777637120 | 22.78° C | 91% | 1012.1 hPa | 0 mm | - | 83 W/m² | - |
| 1777636816 | 22.78° C | 92% | 1012 hPa | 0 mm | - | 70 W/m² | - |
| 1777636512 | 22.22° C | 92% | 1012 hPa | 0 mm | - | 69 W/m² | - |
| 1777636209 | 22.22° C | 92% | 1011.9 hPa | 0 mm | - | 58 W/m² | - |
| 1777635909 | 22.22° C | 92% | 1011.9 hPa | 0 mm | - | 52 W/m² | - |
| 1777635605 | 22.22° C | 92% | 1012.1 hPa | 0 mm | - | 41 W/m² | - |
| 1777635302 | 22.22° C | 92% | 1011.9 hPa | 0 mm | - | 34 W/m² | - |
| 1777634998 | 22.22° C | 92% | 1011.7 hPa | 0 mm | - | 26 W/m² | - |
| 1777634695 | 22.22° C | 92% | 1011.7 hPa | 0 mm | - | 21 W/m² | - |
| 1777634393 | 22.22° C | 92% | 1011.6 hPa | 0 mm | - | 15 W/m² | - |
| 1777634089 | 22.22° C | 92% | 1011.6 hPa | 0 mm | - | 13 W/m² | - |
| 1777633785 | 22.22° C | 92% | 1011.4 hPa | 0 mm | - | 9 W/m² | - |
| 1777633484 | 22.22° C | 92% | 1011.4 hPa | 0 mm | - | 7 W/m² | - |
| 1777633181 | 22.22° C | 92% | 1011.5 hPa | 0 mm | - | 3 W/m² | - |
| 1777632878 | 22.22° C | 92% | 1011.2 hPa | 0 mm | - | 2 W/m² | - |
| 1777632574 | 22.22° C | 92% | 1011.1 hPa | 0 mm | - | 1 W/m² | - |
| 1777632272 | 22.22° C | 92% | 1011.2 hPa | 0 mm | - | 1 W/m² | - |
| 1777631968 | 22.22° C | 92% | 1011.2 hPa | 0 mm | - | 0 W/m² | - |
| 1777631666 | 22.22° C | 92% | 1011 hPa | 0 mm | - | 0 W/m² | - |
| 1777631363 | 22.22° C | 92% | 1011 hPa | 0 mm | - | 0 W/m² | - |
* Rain latest hour (hover to see other rain measurements)
** Current wind speed in m/s (hover to see current wind gust speed)